Regional Weather Roundup
Issued by NWS Newport/Morehead, NC

Current Version | Previous Version | Graphics & Text | Print | Product List | Glossary Off
Versions: 1 2 3 4 5 6 7 8 9 10 11 12 13 14 15 16 17 18 19 20 21 22 23 24 25 26 27 28 29 30 31 32 33 34 35 36 37 38 39 40 41 42 43 44 45 46 47 48 49 50

000
ASUS42 KMHX 251322
RWRMHX
WEATHER ROUNDUP FOR EASTERN NORTH CAROLINA
NATIONAL WEATHER SERVICE NEWPORT/MOREHEAD CITY NC
800 AM EST THU DEC 25 2014

NOTE: "FAIR" INDICATES FEW OR NO CLOUDS BELOW 12,000 FEET
WITH NO SIGNIFICANT WEATHER AND/OR OBSTRUCTIONS TO VISIBILITY

NCZ015>017-031-032-045>047-102-103-251400-
NORTH COAST

CITY           SKY/WX    TMP DP  RH WIND       PRES   REMARKS
EDENTON        CLOUDY    59  51  74 W13       29.86R
ELIZABETH CITY CLOUDY    65  52  62 W13G24    29.81R
KITTY HAWK     CLOUDY    63  62  97 SW10G16   29.81R
MANTEO         CLOUDY    63  59  88 SW14      29.82R

$$

NCZ045>047-081-094-103-104-251400-
CENTRAL COAST

CITY           SKY/WX    TMP DP  RH WIND       PRES   REMARKS
FRISCO         CLOUDY    60  60 100 W12G21    29.86R FOG
SWANQUARTER      N/A     57 N/A N/A W10G20    29.82R

$$

NCZ095-097-098-100-101-251400-
SOUTHERN COAST

CITY           SKY/WX    TMP DP  RH WIND       PRES   REMARKS
BEAUFORT       CLOUDY    59  51  75 W13       29.90R
CEDAR ISLAND     N/A     61 N/A N/A W10G20    29.91R
JACKSONVILLE   CLOUDY    57  47  69 W13G23    29.92R
PINEY ISLAND   CLOUDY    62  48  60 W13       29.88R
WILMINGTON     CLOUDY    56  46  69 W16G22    29.94R


$$

NCZ011>013-027>030-043-044-078>080-089-090>093-098-251400-
COASTAL PLAIN

CITY           SKY/WX    TMP DP  RH WIND       PRES   REMARKS
AHOSKIE        CLOUDY    53  40  59 NW6       29.88R
CLINTON        CLOUDY    54  49  84 W8        29.94R
ELIZABETHTOWN  CLOUDY    53  45  74 W7        29.96R
GOLDSBORO      CLOUDY    55  55  97 W12       29.89R
GREENVILLE     CLOUDY    59  52  77 W7        29.89R
HAVELOCK       CLOUDY    60  45  57 W18       29.90R
KENANSVILLE    CLOUDY    54  47  76 W9        29.95R
KINSTON        CLOUDY    57  50  77 W9        29.91R
NEW BERN       CLOUDY    60  46  59 W13G21    29.89R
RICHLANDS      CLOUDY    55  46  71 W10G16    29.94R
ROCKY MOUNT    CLOUDY    55  44  66 NW13      29.90R
WASHINGTON     CLOUDY    58  50  74 W12       29.88R
WHITEVILLE     CLOUDY    53  44  70 W7        29.97R

$$

AMZ130-135-150-152-154-156-158-170-250-252-270-ANZ085-086-088-633-658-670-251400-
MARINE OBSERVATIONS

STATION/POSITION TIME  TEMP    WIND        PRES    WAVE   SWELL
                       AIR SEA DIR/SP/G            HT/PER HT/PER
                 (UTC) (F)     (DEG/KT/KT) (MB)    (FT/S) (FT/S)
CHESAPEAKE LIGHT 1300   57     240/ 11/ 12 1007.9
64 E VA BEACH    1300   56 53  210/ 10/ 12 1008.1    6/ 8   5/ 8
DUCK             1300   62 50  230/ 12/ 18 1008.3
2 E DUCK         1300      50                N/A     3/ 7
10 NE DUCK       1300      50                N/A     4/ 6
OREGON INLET     1300   54 54  200/ 12/ 15 1009.9
13E OREGON INLT  1300      51                N/A     5/ 8   2/11
HATTERAS CG      1300   61 57  240/ 11/ 17 1011.7
DIAMOND BUOY     1300   69                 1010.4    8/ 8
17 S OCRACOKE    NOT AVBL
CAPE LOOKOUT     1300   60     260/ 16/ 20 1012.2
BEAUFORT LAB     1300   59 55  270/  4/  9 1011.5
30 SE NEW RIVER  1300   61 60  270/ 19/ 23 1013.4    7/ 8   3/27
5 SE WRIGHTSVLE  NOT AVBL
225 S CAPE HAT   1156   72 72  240/  8/ 10 1015.0    9/ 7   8/ 7
41 SE CHARLESTON 1300   59 73  290/ 21/ 27 1016.5    6/ 6

$$



USA.gov is the U.S. government's official web portal to all federal, state and local government web resources and services.